Погода в Чернореченском

Россия / Ивановская область     56°58′24″N   40°51′31″E
темп.,
°C
ветер,
м/с
пор.,
м/с
влажн.,
%
обл.,
%
осадки,
мм/ч
давл.,
гПа
погр.,
м
21 апреля, ср
ср2100:00+5вюв61374100 1.0 1016981
03:00+2в61697100 2.4 1012785
06:00+1в71797100 4.8 1008818
09:00+4вюв81791100 6.0 1005935
12:00+7юв81890100 0.8 10031464
15:00+4ю51090100 5.3 1006846
18:00+4ююз4891100 0.1 1008834
21:00+3ююз3893100 0.1 1010476
22 апреля, чт
чт2200:00+3ююз3795100 0.0 1011371
03:00+3ююз3896100 0.0 1013318
06:00+3ю4993100 0.0 1014410
09:00+6ююз4681100 0.0 1015725
12:00+7ююз4676100 0.2 1016956
15:00+8ююз477394 0.3 10171112
18:00+8ююз487519 0.0 1017823
21:00+7ю3879100 0.0 1018241
23 апреля, пт
пт2300:00+6ююв3108846 0.0 1017260
03:00+6ююв4118929 0.0 1017367
06:00+6ююв411935 0.0 1017362
09:00+11ю59755 0.0 1017599
12:00+15ю6115989 0.6 10171481
15:00+17ю5944100 1.1 10162637
18:00+14ю495677 0.1 1016698
21:00+10ююв4137523 0.1 1016376
24 апреля, сб
сб2400:00+9юв413795 0.0 1015367
03:00+7юв412845 0.0 1013345
06:00+7юв5148368 0.0 1012475
09:00+12юв6126988 0.5 10101209
12:00+14юв7105878 1.3 10081570
15:00+14юв61061100 3.4 10061610
18:00+10ююв4989100 3.5 1005856
21:00+4зюз4797100 11.1 1005440
25 апреля, вс
вс2500:00+4зюз4997100 3.2 1005668
03:00+4юз3891100 3.7 1005679
06:00+4зюз4893100 0.2 1005677
09:00+3юз4997100 0.5 1005562
12:00+5зюз598583 0.4 1007857
15:00+6зюз477479 0.9 10081184
18:00+5зюз487152 0.1 10091156
21:00+2ююз37845 0.1 1009147